Year,Month,Day,Hour,Minute,Value (Times are PST for windspeed in km/hr)
2010,11,22,00,00,4.70
2010,11,22,00,01,5.60
2010,11,22,00,02,5.90
2010,11,22,00,03,3.00
2010,11,22,00,04,0.90
2010,11,22,00,05,6.10
2010,11,22,00,06,5.80
2010,11,22,00,07,2.80
2010,11,22,00,08,2.50
2010,11,22,00,09,6.00
2010,11,22,00,10,2.70
2010,11,22,00,11,0.20
2010,11,22,00,12,0.00
2010,11,22,00,13,0.50
2010,11,22,00,14,1.90
2010,11,22,00,15,1.30
2010,11,22,00,16,4.30
2010,11,22,00,17,0.60
2010,11,22,00,18,0.20
2010,11,22,00,19,2.00
2010,11,22,00,20,2.40
2010,11,22,00,21,2.10
2010,11,22,00,22,1.20
2010,11,22,00,23,1.30
2010,11,22,00,24,5.20
2010,11,22,00,25,3.30
2010,11,22,00,26,0.20
2010,11,22,00,27,0.20
2010,11,22,00,28,5.10
2010,11,22,00,29,4.80
2010,11,22,00,30,9.10
2010,11,22,00,31,5.80
2010,11,22,00,32,3.00
2010,11,22,00,33,5.80
2010,11,22,00,34,1.50
2010,11,22,00,35,3.40
2010,11,22,00,36,2.40
2010,11,22,00,37,2.30
2010,11,22,00,38,0.10
2010,11,22,00,39,0.10
2010,11,22,00,40,0.00
2010,11,22,00,41,0.00
2010,11,22,00,42,0.00
2010,11,22,00,43,0.40
2010,11,22,00,44,1.00
2010,11,22,00,45,0.00
2010,11,22,00,46,0.60
2010,11,22,00,47,0.10
2010,11,22,00,48,2.00
2010,11,22,00,49,0.70
2010,11,22,00,50,2.10
2010,11,22,00,51,0.20
2010,11,22,00,52,0.10
2010,11,22,00,53,0.30
2010,11,22,00,54,0.20
2010,11,22,00,55,0.40
2010,11,22,00,56,0.10
2010,11,22,00,57,0.00
2010,11,22,00,58,0.20
2010,11,22,00,59,0.90
2010,11,22,01,00,0.20
2010,11,22,01,01,0.40
2010,11,22,01,02,1.90
2010,11,22,01,03,0.00
2010,11,22,01,04,0.00
2010,11,22,01,05,0.00
2010,11,22,01,06,0.20
2010,11,22,01,07,0.00
2010,11,22,01,08,0.00
2010,11,22,01,09,0.60
2010,11,22,01,10,0.10
2010,11,22,01,11,0.20
2010,11,22,01,12,0.10
2010,11,22,01,13,1.30
2010,11,22,01,14,0.60
2010,11,22,01,15,0.00
2010,11,22,01,16,0.00
2010,11,22,01,17,0.10
2010,11,22,01,18,0.00
2010,11,22,01,19,0.10
2010,11,22,01,20,0.10
2010,11,22,01,21,0.00
2010,11,22,01,22,0.00
2010,11,22,01,23,0.00
2010,11,22,01,24,0.00
2010,11,22,01,25,0.00
2010,11,22,01,26,0.00
2010,11,22,01,27,0.00
2010,11,22,01,28,0.00
2010,11,22,01,29,0.00
2010,11,22,01,30,0.00
2010,11,22,01,31,0.00
2010,11,22,01,32,0.00
2010,11,22,01,33,0.00
2010,11,22,01,34,0.10
2010,11,22,01,35,0.00
2010,11,22,01,36,0.00
2010,11,22,01,37,0.00
2010,11,22,01,38,0.00
2010,11,22,01,39,0.00
2010,11,22,01,40,0.00
2010,11,22,01,41,0.00
2010,11,22,01,42,0.00
2010,11,22,01,43,0.00
2010,11,22,01,44,0.00
2010,11,22,01,45,0.00
2010,11,22,01,46,0.00
2010,11,22,01,47,0.00
2010,11,22,01,48,0.10
2010,11,22,01,49,0.00
2010,11,22,01,50,0.00
2010,11,22,01,51,0.00
2010,11,22,01,52,0.00
2010,11,22,01,53,0.00
2010,11,22,01,54,0.00
2010,11,22,01,55,0.00
2010,11,22,01,56,0.50
2010,11,22,01,57,0.30
2010,11,22,01,58,0.00
2010,11,22,01,59,0.40
2010,11,22,02,00,0.00
2010,11,22,02,01,0.00
2010,11,22,02,02,0.60
2010,11,22,02,03,0.10
2010,11,22,02,04,0.50
2010,11,22,02,05,1.70
2010,11,22,02,06,2.60
2010,11,22,02,07,4.40
2010,11,22,02,08,2.50
2010,11,22,02,09,4.50
2010,11,22,02,10,1.10
2010,11,22,02,11,1.70
2010,11,22,02,12,0.60
2010,11,22,02,13,0.80
2010,11,22,02,14,2.30
2010,11,22,02,15,1.10
2010,11,22,02,16,2.20
2010,11,22,02,17,0.80
2010,11,22,02,18,1.50
2010,11,22,02,19,0.20
2010,11,22,02,20,2.30
2010,11,22,02,21,2.40
2010,11,22,02,22,2.70
2010,11,22,02,23,3.50
2010,11,22,02,24,4.40
2010,11,22,02,25,4.70
2010,11,22,02,26,4.20
2010,11,22,02,27,3.60
2010,11,22,02,28,4.40
2010,11,22,02,29,4.30
2010,11,22,02,30,2.70
2010,11,22,02,31,1.80
2010,11,22,02,32,5.30
2010,11,22,02,33,3.60
2010,11,22,02,34,1.80
2010,11,22,02,35,3.50
2010,11,22,02,36,2.70
2010,11,22,02,37,3.90
2010,11,22,02,38,3.10
2010,11,22,02,39,4.20
2010,11,22,02,40,5.30
2010,11,22,02,41,6.60
2010,11,22,02,42,5.30
2010,11,22,02,43,4.30
2010,11,22,02,44,4.50
2010,11,22,02,45,3.90
2010,11,22,02,46,7.20
2010,11,22,02,47,2.90
2010,11,22,02,48,5.60
2010,11,22,02,49,5.10
2010,11,22,02,50,4.70
2010,11,22,02,51,6.40
2010,11,22,02,52,5.40
2010,11,22,02,53,5.20
2010,11,22,02,54,4.80
2010,11,22,02,55,6.60
2010,11,22,02,56,6.60
2010,11,22,02,57,6.20
2010,11,22,02,58,5.60
2010,11,22,02,59,7.00
2010,11,22,03,00,6.50
2010,11,22,03,01,8.00
2010,11,22,03,02,9.50
2010,11,22,03,03,8.60
2010,11,22,03,04,8.60
2010,11,22,03,05,6.90
2010,11,22,03,06,8.10
2010,11,22,03,07,10.80
2010,11,22,03,08,10.60
2010,11,22,03,09,11.00
2010,11,22,03,10,9.40
2010,11,22,03,11,10.60
2010,11,22,03,12,6.60
2010,11,22,03,13,9.10
2010,11,22,03,14,9.70
2010,11,22,03,15,9.50
2010,11,22,03,16,8.60
2010,11,22,03,17,8.20
2010,11,22,03,18,10.20
2010,11,22,03,19,8.40
2010,11,22,03,20,6.50
2010,11,22,03,21,8.00
2010,11,22,03,22,5.90
2010,11,22,03,23,6.50
2010,11,22,03,24,10.10
2010,11,22,03,25,6.80
2010,11,22,03,26,3.00
2010,11,22,03,27,4.50
2010,11,22,03,28,3.80
2010,11,22,03,29,5.30
2010,11,22,03,30,4.10
2010,11,22,03,31,3.40
2010,11,22,03,32,2.40
2010,11,22,03,33,6.10
2010,11,22,03,34,4.80
2010,11,22,03,35,3.30
2010,11,22,03,36,1.90
2010,11,22,03,37,2.30
2010,11,22,03,38,2.50
2010,11,22,03,39,1.10
2010,11,22,03,40,1.20
2010,11,22,03,41,0.00
2010,11,22,03,42,0.60
2010,11,22,03,43,0.10
2010,11,22,03,44,0.30
2010,11,22,03,45,0.20
2010,11,22,03,46,0.00
2010,11,22,03,47,1.80
2010,11,22,03,48,3.90
2010,11,22,03,49,1.00
2010,11,22,03,50,2.80
2010,11,22,03,51,2.30
2010,11,22,03,52,1.60
2010,11,22,03,53,5.60
2010,11,22,03,54,5.90
2010,11,22,03,55,5.00
2010,11,22,03,56,5.60
2010,11,22,03,57,5.50
2010,11,22,03,58,4.30
2010,11,22,03,59,2.60
2010,11,22,04,00,1.30
2010,11,22,04,01,3.90
2010,11,22,04,02,7.30
2010,11,22,04,03,6.40
2010,11,22,04,04,5.00
2010,11,22,04,05,7.50
2010,11,22,04,06,7.50
2010,11,22,04,07,6.30
2010,11,22,04,08,7.30
2010,11,22,04,09,6.80
2010,11,22,04,10,4.50
2010,11,22,04,11,4.30
2010,11,22,04,12,3.20
2010,11,22,04,13,5.10
2010,11,22,04,14,1.80
2010,11,22,04,15,1.90
2010,11,22,04,16,1.40
2010,11,22,04,17,4.40
2010,11,22,04,18,4.20
2010,11,22,04,19,9.70
2010,11,22,04,20,6.00
2010,11,22,04,21,7.10
2010,11,22,04,22,5.20
2010,11,22,04,23,6.40
2010,11,22,04,24,5.90
2010,11,22,04,25,11.70
2010,11,22,04,26,10.30
2010,11,22,04,27,10.80
2010,11,22,04,28,9.90
2010,11,22,04,29,5.50
2010,11,22,04,30,1.70
2010,11,22,04,31,7.50
2010,11,22,04,32,11.10
2010,11,22,04,33,8.80
2010,11,22,04,34,7.90
2010,11,22,04,35,7.40
2010,11,22,04,36,8.90
2010,11,22,04,37,7.20
2010,11,22,04,38,4.80
2010,11,22,04,39,5.10
2010,11,22,04,40,7.20
2010,11,22,04,41,5.00
2010,11,22,04,42,7.00
2010,11,22,04,43,5.30
2010,11,22,04,44,5.10
2010,11,22,04,45,7.10
2010,11,22,04,46,6.00
2010,11,22,04,47,7.70
2010,11,22,04,48,11.60
2010,11,22,04,49,7.10
2010,11,22,04,50,6.70
2010,11,22,04,51,8.20
2010,11,22,04,52,9.20
2010,11,22,04,53,8.40
2010,11,22,04,54,5.60
2010,11,22,04,55,5.90
2010,11,22,04,56,5.50
2010,11,22,04,57,5.80
2010,11,22,04,58,11.90
2010,11,22,04,59,11.50
2010,11,22,05,00,8.00
2010,11,22,05,01,10.60
2010,11,22,05,02,9.20
2010,11,22,05,03,11.80
2010,11,22,05,04,5.50
2010,11,22,05,05,4.40
2010,11,22,05,06,10.50
2010,11,22,05,07,5.80
2010,11,22,05,08,4.60
2010,11,22,05,09,4.30
2010,11,22,05,10,12.50
2010,11,22,05,11,10.80
2010,11,22,05,12,10.00
2010,11,22,05,13,12.20
2010,11,22,05,14,7.90
2010,11,22,05,15,7.70
2010,11,22,05,16,4.20
2010,11,22,05,17,9.80
2010,11,22,05,18,7.00
2010,11,22,05,19,7.40
2010,11,22,05,20,5.90
2010,11,22,05,21,8.10
2010,11,22,05,22,5.50
2010,11,22,05,23,7.90
2010,11,22,05,24,7.30
2010,11,22,05,25,8.00
2010,11,22,05,26,7.20
2010,11,22,05,27,11.60
2010,11,22,05,28,6.60
2010,11,22,05,29,6.70
2010,11,22,05,30,8.50
2010,11,22,05,31,9.70
2010,11,22,05,32,4.50
2010,11,22,05,33,6.80
2010,11,22,05,34,12.10
2010,11,22,05,35,6.50
2010,11,22,05,36,2.50
2010,11,22,05,37,3.90
2010,11,22,05,38,8.00
2010,11,22,05,39,6.10
2010,11,22,05,40,3.00
2010,11,22,05,41,3.40
2010,11,22,05,42,5.60
2010,11,22,05,43,2.40
2010,11,22,05,44,5.70
2010,11,22,05,45,6.40
2010,11,22,05,46,6.90
2010,11,22,05,47,9.90
2010,11,22,05,48,11.50
2010,11,22,05,49,11.20
2010,11,22,05,50,7.60
2010,11,22,05,51,6.00
2010,11,22,05,52,7.50
2010,11,22,05,53,7.30
2010,11,22,05,54,6.50
2010,11,22,05,55,7.80
2010,11,22,05,56,8.00
2010,11,22,05,57,6.40
2010,11,22,05,58,8.20
2010,11,22,05,59,7.80
2010,11,22,06,00,7.40
2010,11,22,06,01,5.70
2010,11,22,06,02,5.20
2010,11,22,06,03,5.80
2010,11,22,06,04,6.40
2010,11,22,06,05,4.80
2010,11,22,06,06,4.80
2010,11,22,06,07,9.60
2010,11,22,06,08,14.10
2010,11,22,06,09,10.30
2010,11,22,06,10,10.50
2010,11,22,06,11,5.80
2010,11,22,06,12,6.80
2010,11,22,06,13,7.40
2010,11,22,06,14,14.10
2010,11,22,06,15,15.40
2010,11,22,06,16,6.70
2010,11,22,06,17,8.50
2010,11,22,06,18,7.20
2010,11,22,06,19,12.10
2010,11,22,06,20,12.20
2010,11,22,06,21,10.60
2010,11,22,06,22,9.00
2010,11,22,06,23,10.10
2010,11,22,06,24,7.00
2010,11,22,06,25,6.80
2010,11,22,06,26,8.40
2010,11,22,06,27,10.90
2010,11,22,06,28,12.20
2010,11,22,06,29,10.70
2010,11,22,06,30,9.50
2010,11,22,06,31,8.90
2010,11,22,06,32,7.80
2010,11,22,06,33,9.00
2010,11,22,06,34,7.60
2010,11,22,06,35,5.40
2010,11,22,06,36,6.80
2010,11,22,06,37,6.00
2010,11,22,06,38,8.50
2010,11,22,06,39,14.50
2010,11,22,06,40,8.30
2010,11,22,06,41,9.30
2010,11,22,06,42,7.80
2010,11,22,06,43,7.50
2010,11,22,06,44,7.10
2010,11,22,06,45,9.20
2010,11,22,06,46,7.60
2010,11,22,06,47,13.70
2010,11,22,06,48,7.50
2010,11,22,06,49,7.00
2010,11,22,06,50,12.30
2010,11,22,06,51,8.40
2010,11,22,06,52,14.30
2010,11,22,06,53,12.20
2010,11,22,06,54,13.50
2010,11,22,06,55,14.70
2010,11,22,06,56,6.40
2010,11,22,06,57,6.30
2010,11,22,06,58,12.10
2010,11,22,06,59,16.30
2010,11,22,07,00,9.20
2010,11,22,07,01,13.60
2010,11,22,07,02,19.60
2010,11,22,07,03,17.30
2010,11,22,07,04,15.50
2010,11,22,07,05,25.20
2010,11,22,07,06,21.20
2010,11,22,07,07,16.30
2010,11,22,07,08,16.30
2010,11,22,07,09,11.70
2010,11,22,07,10,10.80
2010,11,22,07,11,10.40
2010,11,22,07,12,10.40
2010,11,22,07,13,12.30
2010,11,22,07,14,13.90
2010,11,22,07,15,9.20
2010,11,22,07,16,18.10
2010,11,22,07,17,18.60
2010,11,22,07,18,13.70
2010,11,22,07,19,17.80
2010,11,22,07,20,6.80
2010,11,22,07,21,9.60
2010,11,22,07,22,15.70
2010,11,22,07,23,11.90
2010,11,22,07,24,8.90
2010,11,22,07,25,10.80
2010,11,22,07,26,8.00
2010,11,22,07,27,11.80
2010,11,22,07,28,16.20
2010,11,22,07,29,14.70
2010,11,22,07,30,7.70
2010,11,22,07,31,8.70
2010,11,22,07,32,15.20
2010,11,22,07,33,9.70
2010,11,22,07,34,9.10
2010,11,22,07,35,10.10
2010,11,22,07,36,12.20
2010,11,22,07,37,13.30
2010,11,22,07,38,17.70
2010,11,22,07,39,14.80
2010,11,22,07,40,8.00
2010,11,22,07,41,7.20
2010,11,22,07,42,8.30
2010,11,22,07,43,5.40
2010,11,22,07,44,10.40
2010,11,22,07,45,8.50
2010,11,22,07,46,9.60
2010,11,22,07,47,8.40
2010,11,22,07,48,15.40
2010,11,22,07,49,16.20
2010,11,22,07,50,13.00
2010,11,22,07,51,11.80
2010,11,22,07,52,10.80
2010,11,22,07,53,11.90
2010,11,22,07,54,11.00
2010,11,22,07,55,13.10
2010,11,22,07,56,17.00
2010,11,22,07,57,15.20
2010,11,22,07,58,11.10
2010,11,22,07,59,13.70
2010,11,22,08,00,15.90
2010,11,22,08,01,12.60
2010,11,22,08,02,10.40
2010,11,22,08,03,9.70
2010,11,22,08,04,9.70
2010,11,22,08,05,14.90
2010,11,22,08,06,12.00
2010,11,22,08,07,13.10
2010,11,22,08,08,15.00
2010,11,22,08,09,17.90
2010,11,22,08,10,14.60
2010,11,22,08,11,14.20
2010,11,22,08,12,10.40
2010,11,22,08,13,14.40
2010,11,22,08,14,7.70
2010,11,22,08,15,13.60
2010,11,22,08,16,19.30
2010,11,22,08,17,17.90
2010,11,22,08,18,16.70
2010,11,22,08,19,12.20
2010,11,22,08,20,18.10
2010,11,22,08,21,17.30
2010,11,22,08,22,14.30
2010,11,22,08,23,19.40
2010,11,22,08,24,24.10
2010,11,22,08,25,12.10
2010,11,22,08,26,13.40
2010,11,22,08,27,10.10
2010,11,22,08,28,13.30
2010,11,22,08,29,19.00
2010,11,22,08,30,20.40
2010,11,22,08,31,14.40
2010,11,22,08,32,18.30
2010,11,22,08,33,8.90
2010,11,22,08,34,12.40
2010,11,22,08,35,13.40
2010,11,22,08,36,8.50
2010,11,22,08,37,8.80
2010,11,22,08,38,16.70
2010,11,22,08,39,12.00
2010,11,22,08,40,13.50
2010,11,22,08,41,20.10
2010,11,22,08,42,15.90
2010,11,22,08,43,15.70
2010,11,22,08,44,18.70
2010,11,22,08,45,18.70
2010,11,22,08,46,17.90
2010,11,22,08,47,13.70
2010,11,22,08,48,24.40
2010,11,22,08,49,18.70
2010,11,22,08,50,16.30
2010,11,22,08,51,13.00
2010,11,22,08,52,10.10
2010,11,22,08,53,15.70
2010,11,22,08,54,17.00
2010,11,22,08,55,15.10
2010,11,22,08,56,18.50
2010,11,22,08,57,17.50
2010,11,22,08,58,13.60
2010,11,22,08,59,13.80
2010,11,22,09,00,13.30
2010,11,22,09,01,10.90
2010,11,22,09,02,10.80
2010,11,22,09,03,14.90
2010,11,22,09,04,14.50
2010,11,22,09,05,16.70
2010,11,22,09,06,10.20
2010,11,22,09,07,12.20
2010,11,22,09,08,16.60
2010,11,22,09,09,9.90
2010,11,22,09,10,11.10
2010,11,22,09,11,11.80
2010,11,22,09,12,10.60
2010,11,22,09,13,8.30
2010,11,22,09,14,7.20
2010,11,22,09,15,7.50
2010,11,22,09,16,9.30
2010,11,22,09,17,11.90
2010,11,22,09,18,9.00
2010,11,22,09,19,6.60
2010,11,22,09,20,7.00
2010,11,22,09,21,8.60
2010,11,22,09,22,5.40
2010,11,22,09,23,8.90
2010,11,22,09,24,8.10
2010,11,22,09,25,9.20
2010,11,22,09,26,6.90
2010,11,22,09,27,10.00
2010,11,22,09,28,9.00
2010,11,22,09,29,7.60
2010,11,22,09,30,7.50
2010,11,22,09,31,7.40
2010,11,22,09,32,10.90
2010,11,22,09,33,6.30
2010,11,22,09,34,7.60
2010,11,22,09,35,11.20
2010,11,22,09,36,10.70
2010,11,22,09,37,14.20
2010,11,22,09,38,13.00
2010,11,22,09,39,12.10
2010,11,22,09,40,6.40
2010,11,22,09,41,7.40
2010,11,22,09,42,10.80
2010,11,22,09,43,11.20
2010,11,22,09,44,10.90
2010,11,22,09,45,10.50
2010,11,22,09,46,11.70
2010,11,22,09,47,9.30
2010,11,22,09,48,9.90
2010,11,22,09,49,10.20
2010,11,22,09,50,10.00
2010,11,22,09,51,14.20
2010,11,22,09,52,12.80
2010,11,22,09,53,12.30
2010,11,22,09,54,10.10
2010,11,22,09,55,11.30
2010,11,22,09,56,15.30
2010,11,22,09,57,13.30
2010,11,22,09,58,9.50
2010,11,22,09,59,12.90
2010,11,22,10,00,8.10
2010,11,22,10,01,12.30
2010,11,22,10,02,13.60
2010,11,22,10,03,9.80
2010,11,22,10,04,11.30
2010,11,22,10,05,17.50
2010,11,22,10,06,14.50
2010,11,22,10,07,7.40
2010,11,22,10,08,9.70
2010,11,22,10,09,12.70
2010,11,22,10,10,12.80
2010,11,22,10,11,20.30
2010,11,22,10,12,13.50
2010,11,22,10,13,10.90
2010,11,22,10,14,13.20
2010,11,22,10,15,17.40
2010,11,22,10,16,13.60
2010,11,22,10,17,11.70
2010,11,22,10,18,10.30
2010,11,22,10,19,12.60
2010,11,22,10,20,11.10
2010,11,22,10,21,10.70
2010,11,22,10,22,10.90
2010,11,22,10,23,7.50
2010,11,22,10,24,11.70
2010,11,22,10,25,8.70
2010,11,22,10,26,12.40
2010,11,22,10,27,13.40
2010,11,22,10,28,7.50
2010,11,22,10,29,8.60
2010,11,22,10,30,6.30
2010,11,22,10,31,12.20
2010,11,22,10,32,9.00
2010,11,22,10,33,13.00
2010,11,22,10,34,10.20
2010,11,22,10,35,11.40
2010,11,22,10,36,11.30
2010,11,22,10,37,10.90
2010,11,22,10,38,10.30
2010,11,22,10,39,13.20
2010,11,22,10,40,9.70
2010,11,22,10,41,11.60
2010,11,22,10,42,19.90
2010,11,22,10,43,18.00
2010,11,22,10,44,14.90
2010,11,22,10,45,11.00
2010,11,22,10,46,10.60
2010,11,22,10,47,10.30
2010,11,22,10,48,19.40
2010,11,22,10,49,19.90
2010,11,22,10,50,18.70
2010,11,22,10,51,13.80
2010,11,22,10,52,9.30
2010,11,22,10,53,13.70
2010,11,22,10,54,17.20
2010,11,22,10,55,17.50
2010,11,22,10,56,24.30
2010,11,22,10,57,16.70
2010,11,22,10,58,15.60
2010,11,22,10,59,21.90
2010,11,22,11,00,12.70
2010,11,22,11,01,13.00
2010,11,22,11,02,11.80
2010,11,22,11,03,14.30
2010,11,22,11,04,13.60
2010,11,22,11,05,10.40
2010,11,22,11,06,17.30
2010,11,22,11,07,20.70
2010,11,22,11,08,19.40
2010,11,22,11,09,14.20
2010,11,22,11,10,16.70
2010,11,22,11,11,12.50
2010,11,22,11,12,12.00
2010,11,22,11,13,20.10
2010,11,22,11,14,11.90
2010,11,22,11,15,18.30
2010,11,22,11,16,16.70
2010,11,22,11,17,20.40
2010,11,22,11,18,17.10
2010,11,22,11,19,18.00
2010,11,22,11,20,16.90
2010,11,22,11,21,13.60
2010,11,22,11,22,19.10
2010,11,22,11,23,19.90
2010,11,22,11,24,23.80
2010,11,22,11,25,18.30
2010,11,22,11,26,13.80
2010,11,22,11,27,13.00
2010,11,22,11,28,10.90
2010,11,22,11,29,13.30
2010,11,22,11,30,12.00
2010,11,22,11,31,25.70
2010,11,22,11,32,22.70
2010,11,22,11,33,22.00
2010,11,22,11,34,25.60
2010,11,22,11,35,19.30
2010,11,22,11,36,22.30
2010,11,22,11,37,16.80
2010,11,22,11,38,17.00
2010,11,22,11,39,13.00
2010,11,22,11,40,12.50
2010,11,22,11,41,21.10
2010,11,22,11,42,20.90
2010,11,22,11,43,17.80
2010,11,22,11,44,15.80
2010,11,22,11,45,18.10
2010,11,22,11,46,24.90
2010,11,22,11,47,24.60
2010,11,22,11,48,20.70
2010,11,22,11,49,24.90
2010,11,22,11,50,25.70
2010,11,22,11,51,24.10
2010,11,22,11,52,21.30
2010,11,22,11,53,31.30
2010,11,22,11,54,31.90
2010,11,22,11,55,22.80
2010,11,22,11,56,23.60
2010,11,22,11,57,29.90
2010,11,22,11,58,20.20
2010,11,22,11,59,17.90
2010,11,22,12,00,14.50
2010,11,22,12,01,19.40
2010,11,22,12,02,21.80
2010,11,22,12,03,24.60
2010,11,22,12,04,27.10
2010,11,22,12,05,25.20
2010,11,22,12,06,29.20
2010,11,22,12,07,23.40
2010,11,22,12,08,18.50
2010,11,22,12,09,25.90
2010,11,22,12,10,28.80
2010,11,22,12,11,25.20
2010,11,22,12,12,22.60
2010,11,22,12,13,20.10
2010,11,22,12,14,17.20
2010,11,22,12,15,22.60
2010,11,22,12,16,23.30
2010,11,22,12,17,24.40
2010,11,22,12,18,20.70
2010,11,22,12,19,21.90
2010,11,22,12,20,22.50
2010,11,22,12,21,18.40
2010,11,22,12,22,23.60
2010,11,22,12,23,32.00
2010,11,22,12,24,25.80
2010,11,22,12,25,32.30
2010,11,22,12,26,36.50
2010,11,22,12,27,31.50
2010,11,22,12,28,32.60
2010,11,22,12,29,37.90
2010,11,22,12,30,28.90
2010,11,22,12,31,34.90
2010,11,22,12,32,36.30
2010,11,22,12,33,31.20
2010,11,22,12,34,29.80
2010,11,22,12,35,29.80
2010,11,22,12,36,31.60
2010,11,22,12,37,26.30
2010,11,22,12,38,18.50
2010,11,22,12,39,24.50
2010,11,22,12,40,28.70
2010,11,22,12,41,25.90
2010,11,22,12,42,27.70
2010,11,22,12,43,27.90
2010,11,22,12,44,24.90
2010,11,22,12,45,34.80
2010,11,22,12,46,21.40
2010,11,22,12,47,28.50
2010,11,22,12,48,24.10
2010,11,22,12,49,20.60
2010,11,22,12,50,24.90
2010,11,22,12,51,37.90
2010,11,22,12,52,30.10
2010,11,22,12,53,22.50
2010,11,22,12,54,29.80
2010,11,22,12,55,35.10
2010,11,22,12,56,30.50
2010,11,22,12,57,27.30
2010,11,22,12,58,24.90
2010,11,22,12,59,31.50
2010,11,22,13,00,29.10
2010,11,22,13,01,25.40
2010,11,22,13,02,20.20
2010,11,22,13,03,18.10
2010,11,22,13,04,27.80
2010,11,22,13,05,24.00
2010,11,22,13,06,26.60
2010,11,22,13,07,21.10
2010,11,22,13,08,25.00
2010,11,22,13,09,27.30
2010,11,22,13,10,30.20
2010,11,22,13,11,23.60
2010,11,22,13,12,23.00
2010,11,22,13,13,23.90
2010,11,22,13,14,31.10
2010,11,22,13,15,25.70
2010,11,22,13,16,18.70
2010,11,22,13,17,22.40
2010,11,22,13,18,36.90
2010,11,22,13,19,31.10
2010,11,22,13,20,23.60
2010,11,22,13,21,33.20
2010,11,22,13,22,38.60
2010,11,22,13,23,37.30
2010,11,22,13,24,26.40
2010,11,22,13,25,34.70
2010,11,22,13,26,29.90
2010,11,22,13,27,34.00
2010,11,22,13,28,39.80
2010,11,22,13,29,31.40
2010,11,22,13,30,40.10
2010,11,22,13,31,34.80
2010,11,22,13,32,25.40
2010,11,22,13,33,26.50
2010,11,22,13,34,21.20
2010,11,22,13,35,31.30
2010,11,22,13,36,24.40
2010,11,22,13,37,19.70
2010,11,22,13,38,26.90
2010,11,22,13,39,26.90
2010,11,22,13,40,27.30
2010,11,22,13,41,24.60
2010,11,22,13,42,31.30
2010,11,22,13,43,30.90
2010,11,22,13,44,26.60
2010,11,22,13,45,36.80
2010,11,22,13,46,30.70
2010,11,22,13,47,32.30
2010,11,22,13,48,31.40
2010,11,22,13,49,25.90
2010,11,22,13,50,34.00
2010,11,22,13,51,34.60
2010,11,22,13,52,32.70
2010,11,22,13,53,29.00
2010,11,22,13,54,37.10
2010,11,22,13,55,25.30
2010,11,22,13,56,29.90
2010,11,22,13,57,29.40
2010,11,22,13,58,33.60
2010,11,22,13,59,42.60
2010,11,22,14,00,37.10
2010,11,22,14,01,31.10
2010,11,22,14,02,25.70
2010,11,22,14,03,39.40
2010,11,22,14,04,38.10
2010,11,22,14,05,41.10
2010,11,22,14,06,46.60
2010,11,22,14,07,32.20
2010,11,22,14,08,34.00
2010,11,22,14,09,39.10
2010,11,22,14,10,28.40
2010,11,22,14,11,31.30
2010,11,22,14,12,25.10
2010,11,22,14,13,29.00
2010,11,22,14,14,30.10
2010,11,22,14,15,24.40
2010,11,22,14,16,29.10
2010,11,22,14,17,33.50
2010,11,22,14,18,31.80
2010,11,22,14,19,29.90
2010,11,22,14,20,43.50
2010,11,22,14,21,33.30
2010,11,22,14,22,32.30
2010,11,22,14,23,34.60
2010,11,22,14,24,38.00
2010,11,22,14,25,32.30
2010,11,22,14,26,29.20
2010,11,22,14,27,40.50
2010,11,22,14,28,33.20
2010,11,22,14,29,25.30
2010,11,22,14,30,30.00
2010,11,22,14,31,36.90
2010,11,22,14,32,36.80
2010,11,22,14,33,34.60
2010,11,22,14,34,39.80
2010,11,22,14,35,39.40
2010,11,22,14,36,28.80
2010,11,22,14,37,22.90
2010,11,22,14,38,32.80
2010,11,22,14,39,34.00
2010,11,22,14,40,35.40
2010,11,22,14,41,34.20
2010,11,22,14,42,36.50
2010,11,22,14,43,37.00
2010,11,22,14,44,41.50
2010,11,22,14,45,35.50
2010,11,22,14,46,46.80
2010,11,22,14,47,32.00
2010,11,22,14,48,40.40
2010,11,22,14,49,37.80
2010,11,22,14,50,39.00
2010,11,22,14,51,35.40
2010,11,22,14,52,37.70
2010,11,22,14,53,39.70
2010,11,22,14,54,36.60
2010,11,22,14,55,29.60
2010,11,22,14,56,27.90
2010,11,22,14,57,34.80
2010,11,22,14,58,31.30
2010,11,22,14,59,34.40
2010,11,22,15,00,34.80
2010,11,22,15,01,36.00
2010,11,22,15,02,30.30
2010,11,22,15,03,36.90
2010,11,22,15,04,25.00
2010,11,22,15,05,31.40
2010,11,22,15,06,29.80
2010,11,22,15,07,29.80
2010,11,22,15,08,37.10
2010,11,22,15,09,40.80
2010,11,22,15,10,28.80
2010,11,22,15,11,26.10
2010,11,22,15,12,35.20
2010,11,22,15,13,29.80
2010,11,22,15,14,24.60
2010,11,22,15,15,34.00
2010,11,22,15,16,30.80
2010,11,22,15,17,38.40
2010,11,22,15,18,30.50
2010,11,22,15,19,30.40
2010,11,22,15,20,22.50
2010,11,22,15,21,31.90
2010,11,22,15,22,33.50
2010,11,22,15,23,27.00
2010,11,22,15,24,26.20
2010,11,22,15,25,31.30
2010,11,22,15,26,32.40
2010,11,22,15,27,23.40
2010,11,22,15,28,31.10
2010,11,22,15,29,27.90
2010,11,22,15,30,30.70
2010,11,22,15,31,24.90
2010,11,22,15,32,27.90
2010,11,22,15,33,32.60
2010,11,22,15,34,37.20
2010,11,22,15,35,28.90
2010,11,22,15,36,32.00
2010,11,22,15,37,31.10
2010,11,22,15,38,29.10
2010,11,22,15,39,27.50
2010,11,22,15,40,28.40
2010,11,22,15,41,27.60
2010,11,22,15,42,37.00
2010,11,22,15,43,32.90
2010,11,22,15,44,34.40
2010,11,22,15,45,29.60
2010,11,22,15,46,31.40
2010,11,22,15,47,35.80
2010,11,22,15,48,38.20
2010,11,22,15,49,35.60
2010,11,22,15,50,30.50
2010,11,22,15,51,33.70
2010,11,22,15,52,36.70
2010,11,22,15,53,28.00
2010,11,22,15,54,33.10
2010,11,22,15,55,36.10
2010,11,22,15,56,33.00
2010,11,22,15,57,39.50
2010,11,22,15,58,39.00
2010,11,22,15,59,36.80
2010,11,22,16,00,38.20
2010,11,22,16,01,32.40
2010,11,22,16,02,30.30
2010,11,22,16,03,39.70
2010,11,22,16,04,34.00
2010,11,22,16,05,40.20
2010,11,22,16,06,29.10
2010,11,22,16,07,24.80
2010,11,22,16,08,31.20
2010,11,22,16,09,39.10
2010,11,22,16,10,33.50
2010,11,22,16,11,38.90
2010,11,22,16,12,39.30
2010,11,22,16,13,38.00
2010,11,22,16,14,37.70
2010,11,22,16,15,30.30
2010,11,22,16,16,28.60
2010,11,22,16,17,38.60
2010,11,22,16,18,40.50
2010,11,22,16,19,43.50
2010,11,22,16,20,40.50
2010,11,22,16,21,37.90
2010,11,22,16,22,28.50
2010,11,22,16,23,34.40
2010,11,22,16,24,41.40
2010,11,22,16,25,47.10
2010,11,22,16,26,45.40
2010,11,22,16,27,39.40
2010,11,22,16,28,40.10
2010,11,22,16,29,47.90
2010,11,22,16,30,39.80
2010,11,22,16,31,44.80
2010,11,22,16,32,46.40
2010,11,22,16,33,41.90
2010,11,22,16,34,39.60
2010,11,22,16,35,31.90
2010,11,22,16,36,38.40
2010,11,22,16,37,29.90
2010,11,22,16,38,28.10
2010,11,22,16,39,27.20
2010,11,22,16,40,37.90
2010,11,22,16,41,42.50
2010,11,22,16,42,43.90
2010,11,22,16,43,42.90
2010,11,22,16,44,35.10
2010,11,22,16,45,34.70
2010,11,22,16,46,39.00
2010,11,22,16,47,38.00
2010,11,22,16,48,36.80
2010,11,22,16,49,30.70
2010,11,22,16,50,36.90
2010,11,22,16,51,41.50
2010,11,22,16,52,40.50
2010,11,22,16,53,43.00
2010,11,22,16,54,35.70
2010,11,22,16,55,32.60
2010,11,22,16,56,39.00
2010,11,22,16,57,33.60
2010,11,22,16,58,31.00
2010,11,22,16,59,38.20
2010,11,22,17,00,51.80
2010,11,22,17,01,45.60
2010,11,22,17,02,38.00
2010,11,22,17,03,40.60
2010,11,22,17,04,43.50
2010,11,22,17,05,47.70
2010,11,22,17,06,32.10
2010,11,22,17,07,32.50
2010,11,22,17,08,37.20
2010,11,22,17,09,36.70
2010,11,22,17,10,43.00
2010,11,22,17,11,33.10
2010,11,22,17,12,27.80
2010,11,22,17,13,31.20
2010,11,22,17,14,35.60
2010,11,22,17,15,36.90
2010,11,22,17,16,35.50
2010,11,22,17,17,30.30
2010,11,22,17,18,36.30
2010,11,22,17,19,41.80
2010,11,22,17,20,46.60
2010,11,22,17,21,36.50
2010,11,22,17,22,33.90
2010,11,22,17,23,34.80
2010,11,22,17,24,41.80
2010,11,22,17,25,46.60
2010,11,22,17,26,39.10
2010,11,22,17,27,30.90
2010,11,22,17,28,37.20
2010,11,22,17,29,47.50
2010,11,22,17,30,41.70
2010,11,22,17,31,51.60
2010,11,22,17,32,39.10
2010,11,22,17,33,34.30
2010,11,22,17,34,35.40
2010,11,22,17,35,32.90
2010,11,22,17,36,27.00
2010,11,22,17,37,30.60
2010,11,22,17,38,31.30